Location: Caltech
(34.1382°N, 118.1253°W)
Time: 18:53:17
(UTC-07:00)

AO-27 - Visible Passes

Search period start: 18 October 2017 00:00
Search period end: 28 October 2017 00:00
Orbit: 786 x 797 km, 98.8° (Epoch: 18 October)

Date Brightness Start Highest point End Pass type
(mag) Time Alt. Az. Time Alt. Az. Time Alt. Az.
18 Oct 10.4 03:27:03 10° NE 03:28:07 13° ENE 03:28:07 13° ENE visible
18 Oct 8.2 05:05:01 10° N 05:08:52 41° NW 05:08:52 41° NW visible
19 Oct 8.4 04:35:49 10° NNE 04:39:20 44° NNE 04:39:20 44° NNE visible
20 Oct 9.4 04:07:01 10° NNE 04:09:46 28° NE 04:09:46 28° NE visible
20 Oct 9.0 05:47:27 10° NNW 05:50:31 19° WNW 05:50:31 19° WNW visible
21 Oct 10.2 03:38:46 10° NE 03:40:13 16° ENE 03:40:13 16° ENE visible
21 Oct 8.6 05:17:33 10° N 05:20:58 31° NW 05:20:58 31° NW visible
22 Oct 8.5 04:48:10 10° N 04:51:24 38° N 04:51:24 38° N visible
23 Oct 9.2 04:19:12 10° NNE 04:21:50 29° NNE 04:21:50 29° NNE visible
23 Oct 9.3 06:00:26 10° NNW 06:02:35 15° NW 06:02:35 15° NW visible
24 Oct 10.1 03:50:41 10° NE 03:52:17 18° NE 03:52:17 18° NE visible
24 Oct 8.9 05:30:10 10° NNW 05:33:02 24° NW 05:33:02 24° NW visible
25 Oct 8.7 05:00:36 10° N 05:03:28 31° NNW 05:03:28 31° NNW visible
26 Oct 9.2 04:31:28 10° NNE 04:33:53 28° NNE 04:33:53 28° NNE visible
26 Oct 9.6 06:13:55 10° NW 06:14:38 11° NW 06:14:38 11° NW visible
27 Oct 9.9 04:02:44 10° NNE 04:04:19 19° NE 04:04:19 19° NE visible
27 Oct 9.2 05:42:53 10° NNW 05:45:04 19° NW 05:45:04 19° NW visible
